Regional Weather Roundup
Issued by NWS Cleveland, OH

Home | Current Version | Previous Version | Text Only | Print | Product List | Glossary On
Versions: 1 2 3 4 5 6 7 8 9 10 11 12 13 14 15 16 17 18 19 20 21 22 23 24 25 26 27 28 29 30 31 32 33 34 35 36 37 38 39 40 41 42 43 44 45 46 47 48 49 50
000
ASUS41 KCLE 190812
RWRCLE
OHIO REGIONAL WEATHER ROUNDUP
NATIONAL WEATHER SERVICE WILMINGTON, OH
400 AM EDT SUN MAY 19 2019

NOTE: "FAIR" INDICATES FEW OR NO CLOUDS BELOW 12,000 FEET WITH NO
SIGNIFICANT WEATHER AND/OR OBSTRUCTIONS TO VISIBILITY.

OHZ001>008-015>018-024>027-034-035-043-044-190900-
   NORTHWEST OHIO

CITY           SKY/WX    TMP DP  RH WIND       PRES   REMARKS
DEFIANCE       FAIR      71  62  73 S8        29.79S
FINDLAY        FAIR      73  63  70 S13       29.81S
TOLEDO EXPRESS FAIR      63  59  87 CALM      29.80R
TOLEDO EXEC    FAIR      67  62  84 S3        29.81S
LIMA           FAIR      72  62  71 S8        29.82F
$$

OHZ009>014-019>023-028>033-038-089-190900-
   NORTHEAST OHIO

CITY           SKY/WX    TMP DP  RH WIND       PRES   REMARKS
CLE-HOPKINS    FAIR      73  60  63 S9        29.87F
CLE-LAKEFRONT  FAIR      72  60  66 S12       29.84S
CUY CO. ARPT   FAIR      72  62  70 S12       29.88S
LORAIN-ELYRIA  FAIR      67  57  70 VRB7      29.86S
ASHTABULA      FAIR      66  63  90 S5        29.89S
AKRON-CANTON   FAIR      70  61  73 S9        29.90S
WOOSTER        FAIR      68  62  81 S8        29.90S
MANSFIELD      FAIR      70  61  73 S12       29.88F
YOUNGSTOWN     FAIR      69  60  73 S7        29.91R
$$

OHZ042-051>053-060>062-070>072-077>081-190900-
  SOUTHWEST OHIO

CITY           SKY/WX    TMP DP  RH WIND       PRES   REMARKS
CINC-COVINGTON FAIR      71  62  73 S12       29.86S
CINC-LUNKEN    FAIR      66  62  87 SW5       29.86S
HAMILTON       FAIR      72  63  73 VRB3      29.86S
DAYTON         FAIR      73  61  65 S10       29.85F
WRIGHT-PAT AFB FAIR      70  62  77 S8        29.85S
DAYTON GENERAL FAIR      71  62  73 S7        29.85S
WILMINGTON     FAIR      69  63  81 S10       29.87F
$$

OHZ036-037-039>041-045>050-054>059-063>069-073>076-082>088-190900-
  CENTRAL AND SOUTHEAST OHIO

CITY           SKY/WX    TMP DP  RH WIND       PRES   REMARKS
COLUMBUS       PTCLDY    70  62  74 VRB7      29.86F
OSU AIRPORT    FAIR      69  62  78 S8        29.86F
BOLTON FIELD   FAIR      67  63  87 S6        29.88F
RICKENBACK AFB FAIR      66  62  86 SE5       29.87F
NEWARK         FAIR      64  61  90 CALM      29.89S
MARION         FAIR      68  61  78 S9        29.86F
LANCASTER      FAIR      66  62  87 S3        29.89F
ZANESVILLE     FAIR      67  60  78 S3        29.91S
NEW PHILLY     MOCLDY    66  62  87 SE3       29.91
$$



USA.gov is the U.S. government's official web portal to all federal, state and local government web resources and services.